N7QNM-13 Weather Reports


Display with metric or nautical units.
time (UTC)temp
F
wind
direction
speed
MPH
gust
MPH
rain 1hr
in
rain 24hr
in
rain mn
in
humidity
%
barometer
mb
20260508025040 74 121 3.0 9.0 0.00 0.00 0.00 33 1010.7
20260508024020 74 105 4.0 12.0 0.00 0.00 0.00 32 1010.6
20260508023040 75 106 4.0 11.0 0.00 0.00 0.00 30 1010.6
20260508022020 76 138 2.0 6.0 0.00 0.00 0.00 31 1010.7
20260508021023 76 160 1.0 7.0 0.00 0.00 0.00 30 1010.8
20260508020020 76 149 4.0 9.0 0.00 0.00 0.00 30 1010.9
20260508015021 76 163 5.0 11.0 0.00 0.00 0.00 28 1010.8
20260508014021 77 152 3.0 11.0 0.00 0.00 0.00 30 1010.9
20260508013021 78 163 4.0 9.0 0.00 0.00 0.00 30 1010.9
20260508012021 79 148 4.0 13.0 0.00 0.00 0.00 31 1010.9
20260508011021 79 163 5.0 14.0 0.00 0.00 0.00 31 1010.9
20260508010021 80 160 5.0 12.0 0.00 0.00 0.00 31 1011.0
20260508005042 80 204 5.0 9.0 0.00 0.00 0.00 31 1011.1
20260508004022 80 167 5.0 11.0 0.00 0.00 0.00 32 1011.1
20260508003022 79 182 5.0 11.0 0.00 0.00 0.00 34 1011.2
20260508002042 79 102 4.0 11.0 0.00 0.00 0.00 36 1011.3
20260508001022 79 75 4.0 10.0 0.00 0.00 0.00 36 1011.3
20260508000022 78 99 4.0 10.0 0.00 0.00 0.00 36 1011.4
20260507235023 78 65 4.0 11.0 0.00 0.00 0.00 37 1011.4
20260507234023 79 50 3.0 10.0 0.00 0.00 0.00 37 1011.5
20260507233023 80 94 3.0 8.0 0.00 0.00 0.00 36 1011.7
20260507232023 80 36 2.0 6.0 0.00 0.00 0.00 35 1011.8
20260507231023 80 41 2.0 8.0 0.00 0.00 0.00 35 1011.9
20260507230023 79 353 0.0 1.0 0.00 0.00 0.00 35 1012.0
20260507225023 79 68 3.0 7.0 0.00 0.00 0.00 35 1012.1
20260507224043 79 45 2.0 8.0 0.00 0.00 0.00 36 1012.2
20260507223024 79 345 1.0 5.0 0.00 0.00 0.00 36 1012.3
20260507222023 79 311 1.0 4.0 0.00 0.00 0.00 36 1012.5
20260507221044 78 321 1.0 7.0 0.00 0.00 0.00 36 1012.6
20260507220024 78 309 2.0 9.0 0.00 0.00 0.00 36 1012.7
20260507215024 77 321 2.0 6.0 0.00 0.00 0.00 37 1012.8
20260507214024 76 320 2.0 5.0 0.00 0.00 0.00 38 1012.9
20260507213024 76 350 2.0 4.0 0.00 0.00 0.00 38 1013.0
20260507212044 76 53 3.0 8.0 0.00 0.00 0.00 38 1013.1
20260507211024 78 64 3.0 9.0 0.00 0.00 0.00 37 1013.2
20260507210044 77 144 1.0 5.0 0.00 0.00 0.00 36 1013.4
20260507205024 75 55 1.0 4.0 0.00 0.00 0.00 38 1013.5
20260507204025 75 56 5.0 12.0 0.00 0.00 0.00 39 1013.6
20260507203045 75 58 2.0 8.0 0.00 0.00 0.00 38 1013.7
20260507202045 74 117 4.0 9.0 0.00 0.00 0.00 39 1013.8
20260507201025 75 111 5.0 12.0 0.00 0.00 0.00 38 1013.9
20260507200025 75 184 6.0 12.0 0.00 0.00 0.00 38 1013.9
20260507195025 74 160 4.0 14.0 0.00 0.00 0.00 40 1014.0
20260507194025 74 100 3.0 7.0 0.00 0.00 0.00 40 1014.1
20260507193025 74 89 2.0 9.0 0.00 0.00 0.00 41 1014.1
20260507192026 74 203 6.0 15.0 0.00 0.00 0.00 39 1014.2
20260507191026 73 73 3.0 9.0 0.00 0.00 0.00 41 1014.2
20260507190026 73 132 5.0 12.0 0.00 0.00 0.00 41 1014.3
20260507185026 73 272 2.0 7.0 0.00 0.00 0.00 40 1014.2
20260507184026 73 238 3.0 10.0 0.00 0.00 0.00 37 1014.3
20260507183026 72 284 2.0 8.0 0.00 0.00 0.00 36 1014.4
20260507182026 72 303 4.0 12.0 0.00 0.00 0.00 36 1014.4
20260507181027 71 320 2.0 10.0 0.00 0.00 0.00 39 1014.4
20260507180027 71 294 3.0 13.0 0.00 0.00 0.00 40 1014.5
20260507175026 70 304 5.0 12.0 0.00 0.00 0.00 41 1014.6
20260507174027 70 288 4.0 10.0 0.00 0.00 0.00 41 1014.6
20260507173027 70 302 3.0 9.0 0.00 0.00 0.00 41 1014.7
20260507172027 69 292 3.0 8.0 0.00 0.00 0.00 40 1014.7
20260507171027 68 264 4.0 8.0 0.00 0.00 0.00 43 1014.8
20260507170107 67 226 3.0 7.0 0.00 0.00 0.00 43 1015.0
20260507165047 67 289 4.0 9.0 0.00 0.00 0.00 44 1015.0
20260507164027 66 301 4.0 8.0 0.00 0.00 0.00 44 1015.1
20260507163028 66 278 3.0 8.0 0.00 0.00 0.00 45 1015.1
20260507162028 65 266 3.0 6.0 0.00 0.00 0.00 46 1015.1
20260507161028 65 230 2.0 5.0 0.00 0.00 0.00 48 1015.2
20260507160028 65 251 2.0 4.0 0.00 0.00 0.00 48 1015.3
20260507155048 63 239 3.0 6.0 0.00 0.00 0.00 49 1015.2
20260507154028 63 259 6.0 10.0 0.00 0.00 0.00 49 1015.1
20260507153028 63 247 5.0 8.0 0.00 0.00 0.00 49 1015.1
20260507152029 63 264 3.0 7.0 0.00 0.00 0.00 49 1015.1
20260507151029 62 273 4.0 10.0 0.00 0.00 0.00 51 1015.0
20260507150028 62 266 7.0 9.0 0.00 0.00 0.00 50 1014.9
20260507145028 61 253 6.0 9.0 0.00 0.00 0.00 53 1014.9
20260507144050 60 262 6.0 11.0 0.00 0.00 0.00 54 1014.9
20260507143034 58 260 5.0 8.0 0.00 0.00 0.00 57 1014.8
20260507142029 56 264 5.0 8.0 0.00 0.00 0.00 69 1014.7
20260507141030 55 202 0.0 2.0 0.00 0.00 0.00 78 1014.8
20260507140049 53 0.0 0.0 0.00 0.00 0.00 79 1014.7
20260507135029 52 104 3.0 6.0 0.00 0.00 0.00 79 1014.7
20260507134030 50 98 0.0 3.0 0.00 0.00 0.00 83 1014.6
20260507133030 49 59 3.0 5.0 0.00 0.00 0.00 83 1014.4
20260507132030 48 66 1.0 4.0 0.00 0.00 0.00 84 1014.4
20260507131030 47 83 0.0 3.0 0.00 0.00 0.00 84 1014.4
20260507130030 47 90 1.0 4.0 0.00 0.00 0.00 84 1014.3
20260507125030 47 247 1.0 3.0 0.00 0.00 0.00 83 1014.1
20260507124030 47 253 2.0 4.0 0.00 0.00 0.00 83 1014.1
20260507123111 47 140 1.0 4.0 0.00 0.00 0.00 83 1014.1
20260507122030 48 68 0.0 2.0 0.00 0.00 0.00 83 1014.1
20260507121051 48 86 4.0 6.0 0.00 0.00 0.00 82 1014.1
20260507120111 48 91 1.0 4.0 0.00 0.00 0.00 81 1014.0
20260507115031 49 71 3.0 5.0 0.00 0.00 0.00 78 1014.0
20260507114031 49 55 0.0 1.0 0.00 0.00 0.00 77 1013.9
20260507113031 49 232 1.0 2.0 0.00 0.00 0.00 76 1013.8
20260507112032 49 216 0.0 1.0 0.00 0.00 0.00 76 1013.6
20260507111031 49 232 0.0 3.0 0.00 0.00 0.00 75 1013.6
20260507110031 50 108 0.0 3.0 0.00 0.00 0.00 73 1013.6
20260507105032 51 105 0.0 2.0 0.00 0.00 0.00 73 1013.6
20260507104052 52 99 0.0 1.0 0.00 0.00 0.00 72 1013.7
20260507103032 52 155 0.0 2.0 0.00 0.00 0.00 70 1013.8
20260507102032 53 212 0.0 2.0 0.00 0.00 0.00 68 1013.8
20260507101032 54 81 2.0 4.0 0.00 0.00 0.00 68 1013.7
20260507100032 55 210 0.0 2.0 0.00 0.00 0.00 65 1013.6
20260507095032 56 92 1.0 4.0 0.00 0.00 0.00 63 1013.6
20260507094052 58 63 2.0 5.0 0.00 0.00 0.00 59 1013.6
20260507093032 59 133 0.0 0.0 0.00 0.00 0.00 57 1013.6
20260507092033 61 256 3.0 5.0 0.00 0.00 0.00 55 1013.5
20260507091033 62 238 3.0 5.0 0.00 0.00 0.00 53 1013.5
20260507090033 62 210 3.0 7.0 0.00 0.00 0.00 52 1013.5
20260507085033 62 204 3.0 7.0 0.00 0.00 0.00 52 1013.4
20260507084033 61 211 2.0 5.0 0.00 0.00 0.00 52 1013.4
20260507083034 61 220 3.0 6.0 0.00 0.00 0.00 53 1013.4
20260507082033 61 205 2.0 4.0 0.00 0.00 0.00 52 1013.4
20260507081054 60 193 2.0 5.0 0.00 0.00 0.00 53 1013.4
20260507080034 61 159 4.0 5.0 0.00 0.00 0.00 53 1013.4
20260507075033 62 202 0.0 4.0 0.00 0.00 0.00 51 1013.4
20260507074034 63 198 1.0 4.0 0.00 0.00 0.00 50 1013.3
20260507073034 64 253 1.0 3.0 0.00 0.00 0.00 49 1013.4
20260507072034 64 242 0.0 3.0 0.00 0.00 0.00 48 1013.2
20260507071115 64 217 3.0 8.0 0.00 0.00 0.00 47 1013.1
20260507070054 64 213 2.0 4.0 0.00 0.00 0.00 47 1013.0
20260507065034 64 169 3.0 6.0 0.00 0.00 0.00 46 1013.0
20260507064055 65 154 1.0 4.0 0.00 0.00 0.00 44 1012.8
20260507063035 65 231 0.0 3.0 0.00 0.00 0.00 44 1012.5
20260507062035 65 245 3.0 5.0 0.00 0.00 0.00 44 1012.4
20260507061035 67 240 3.0 5.0 0.00 0.00 0.00 43 1012.5
20260507060036 68 284 0.0 3.0 0.00 0.00 0.00 40 1012.6
20260507055035 69 271 2.0 5.0 0.00 0.00 0.00 39 1012.6
20260507054035 69 229 5.0 10.0 0.00 0.00 0.00 38 1012.4
20260507053036 69 232 4.0 8.0 0.00 0.00 0.00 39 1012.5
20260507052035 69 212 2.0 5.0 0.00 0.00 0.00 39 1012.5
20260507051035 70 254 4.0 7.0 0.00 0.00 0.00 39 1012.3
20260507050056 70 248 7.0 11.0 0.00 0.00 0.00 39 1012.1
20260507045036 71 242 5.0 11.0 0.00 0.00 0.00 38 1012.1
20260507044036 71 241 6.0 8.0 0.00 0.00 0.00 39 1012.1
20260507043036 72 277 7.0 9.0 0.00 0.00 0.00 38 1012.0
20260507042037 73 261 8.0 12.0 0.00 0.00 0.00 36 1012.0
20260507041036 73 277 10.0 15.0 0.00 0.00 0.00 35 1011.8
20260507040036 72 283 10.0 14.0 0.00 0.00 0.00 35 1011.7
20260507035037 71 285 7.0 13.0 0.00 0.00 0.00 38 1011.6
20260507034038 72 266 4.0 6.0 0.00 0.00 0.00 39 1011.6
20260507033037 73 256 4.0 6.0 0.00 0.00 0.00 37 1011.5
20260507032057 74 237 3.0 6.0 0.00 0.00 0.00 36 1011.5
20260507031037 74 199 2.0 4.0 0.00 0.00 0.00 36 1011.5
20260507030037 74 220 2.0 5.0 0.00 0.00 0.00 36 1011.5